Skip Page Navigation
NASA JPL Caltech
NASA Logo - Jet Propulsion Laboratory + View the NASA Portal
+ Near-Earth Object (NEO) Program
Search JPL
JPL Home Earth Solar System Stars & Galaxies Technology
JPL Solar System Dynamics
BODIES ORBITS EPHEMERIDES TOOLS PHYSICAL DATA DISCOVERY FAQ SITE MAP
JPL Small-Body Database Browser
Search: [ help ]  
3492 Petra-Pepi (1985 DQ)
Classification: Main-belt Asteroid          SPK-ID: 2003492
Ephemeris | Orbit Diagram | Orbital Elements | Physical Parameters | Discovery Circumstances ]

[ show orbit diagram ]
Orbital Elements at Epoch 2457600.5 (2016-Jul-31.0) TDB
Reference: JPL 16 (heliocentric ecliptic J2000)
 Element Value Uncertainty (1-sigma)   Units 
e .1432586540628425 5.1678e-08  
a 2.616987814799307 1.4817e-08 au
q 2.242081662752299 1.3561e-07 au
i 13.62124594309367 5.1471e-06 deg
node 138.820021810851 2.4014e-05 deg
peri 97.27524231087438 3.1297e-05 deg
M 92.18977485504691 1.778e-05 deg
tp 2457204.512724064416
(2015-Jul-01.01272406)
7.6761e-05 JED
period 1546.325713030051
4.23
1.3132e-05
3.595e-08
d
yr
n .2328099422821949 1.9771e-09 deg/d
Q 2.991893966846315 1.6939e-08 au
  Orbit Determination Parameters
   # obs. used (total)      1382  
   data-arc span      23806 days (65.18 yr)  
   first obs. used      1951-02-10  
   last obs. used      2016-04-15  
   planetary ephem.      DE431  
   SB-pert. ephem.      SB431-BIG16  
   condition code      0  
   fit RMS      .49725  
   data source      ORB  
   producer      Otto Matic  
   solution date      2016-Apr-25 12:44:11  

Additional Information
 Earth MOID = 1.27892 au 
 Jupiter MOID = 2.16536 au 
 T_jup = 3.353 
[ show covariance matrix ]

Ephemeris | Orbit Diagram | Orbital Elements | Physical Parameters | Discovery Circumstances ]

Physical Parameter Table
Parameter Symbol Value Units Sigma Reference Notes
absolute magnitude H 11.7 mag n/a MPO267721  
rotation period rot_per 47.05 h n/a LCDB (Rev. 2016-February); Warner et al., 2009 Published Reference List:
[Stephens, R.D. (2011) Minor Planet Bul. 38, 211-212.]
[Hanus, J.; Broz, M.; Durech, J.; Warner, B.D.; et al. (2013) Astron. Astrophys. 559, A134.]

3492 Petra-Pepi (1985 DQ)          Discovered 1985-Feb-16 by Mahrova, M. at Klet
Reference: DISCOVERY.DBLast Updated: 2003-08-29

Alternate Designations
 1985 DQ = 1951 CG = 1977 JD1 = 1978 SA1 = 1978 TK9 = 1980 CB 
Ephemeris | Orbit Diagram | Orbital Elements | Physical Parameters | Discovery Circumstances ]
ABOUT SSD CREDITS/AWARDS PRIVACY/COPYRIGHT GLOSSARY LINKS
FirstGov 2016-May-04 23:06 UT
(server date/time)  
NASA Home Page
Site Manager:   Ryan S. Park
Webmaster  Alan B. Chamberlin